Tracking 31027 objects as of 19-Jul-2025
HD Live streaming from Space Station
objects crossing your sky now

FORMOSAT7-3/COSMIC2-3

Track FORMOSAT7-3/COSMIC2-3 now!
10-day predictions


NORAD ID: 44343
Int'l Code: 2019-036E
Perigee: 555.5 km
Apogee: 556.0 km
Inclination: 24.0 °
Period: 95.6 minutes
Semi major axis: 6926 km
RCS: Unknown
Launch date: June 25, 2019
Source: Taiwan (Republic of China) (ROC)
Launch site: AIR FORCE EASTERN TEST RANGE (AFETR)
Your satellite tracking list
COSMOS 2251 DEB
Track 1 satellite(s)




NASA's NSSDC Master Catalog

Two Line Element Set (TLE):
1 44343U 19036E   25199.63025613  .00003591  00000-0  21822-3 0  9995
2 44343  23.9999 307.8592 0000382 286.3612  73.6848 15.05952987332832
Source of the keplerian elements: AFSPC